| time (UTC) | temp F | wind direction | speed knots | gust knots | rain 1hr in | rain 24hr in | rain mn in | humidity % | barometer mb |
| 20260906023522 | 56 | 23 | 0.0 | 0.0 | 8.24 | 9.99 | 0.00 | 91 | 1025.2 |
| 20260906022523 | 56 | 23 | 0.0 | 0.0 | 8.06 | 9.99 | 0.00 | 91 | 1025.0 |
| 20260906022023 | 56 | 23 | 0.0 | 0.0 | 8.73 | 9.99 | 0.00 | 91 | 1025.0 |
| 20260906021523 | 56 | 23 | 0.0 | 0.0 | 8.14 | 9.99 | 0.00 | 91 | 1025.0 |
| 20260906021023 | 56 | 23 | 0.0 | 0.0 | 7.34 | 9.99 | 0.00 | 91 | 1025.3 |
| 20260906020522 | 56 | 23 | 0.0 | 0.0 | 7.92 | 9.99 | 0.00 | 91 | 1025.2 |
| 20260906015024 | 57 | 23 | 0.0 | 0.0 | 5.71 | 9.99 | 0.00 | 91 | 1025.0 |
| 20260906014523 | 57 | 23 | 0.0 | 0.0 | 7.45 | 9.99 | 0.00 | 91 | 1024.9 |
| 20260906014024 | 57 | 23 | 0.0 | 0.0 | 6.43 | 9.71 | 0.00 | 91 | 1024.8 |
| 20260906013022 | 57 | 23 | 0.0 | 0.0 | 7.59 | 9.05 | 0.00 | 91 | 1025.0 |
| 20260906012522 | 57 | 23 | 0.0 | 0.0 | 6.94 | 9.05 | 0.00 | 90 | 1025.0 |
| 20260906012023 | 57 | 23 | 0.0 | 0.0 | 7.75 | 9.05 | 0.00 | 90 | 1025.0 |
| 20260906011523 | 57 | 23 | 0.0 | 0.0 | 7.77 | 9.05 | 0.00 | 90 | 1025.0 |
| 20260906010523 | 58 | 23 | 0.0 | 0.0 | 8.55 | 7.99 | 0.00 | 90 | 1025.0 |
| 20260906010023 | 58 | 23 | 0.0 | 0.0 | 9.10 | 7.97 | 0.00 | 90 | 1025.0 |
| 20260906005523 | 58 | 23 | 0.0 | 0.0 | 9.00 | 7.87 | 0.00 | 90 | 1024.9 |
| 20260906005024 | 58 | 23 | 0.0 | 0.0 | 7.27 | 6.13 | 0.00 | 90 | 1024.9 |
| 20260906004523 | 58 | 23 | 0.0 | 0.0 | 8.86 | 6.13 | 0.00 | 90 | 1025.0 |
| 20260906003524 | 58 | 23 | 0.0 | 0.0 | 8.12 | 3.85 | 0.00 | 90 | 1024.9 |
| 20260906003023 | 58 | 23 | 0.0 | 0.0 | 8.92 | 3.99 | 0.00 | 90 | 1024.8 |
| 20260906002523 | 58 | 23 | 0.0 | 0.0 | 9.12 | 3.99 | 0.00 | 90 | 1024.9 |
| 20260906002023 | 58 | 23 | 0.0 | 0.0 | 9.12 | 3.99 | 0.00 | 90 | 1024.8 |
| 20260906001523 | 58 | 23 | 0.0 | 0.0 | 8.41 | 3.99 | 0.00 | 90 | 1024.7 |
| 20260906001023 | 58 | 23 | 0.0 | 0.0 | 8.59 | 3.99 | 0.00 | 90 | 1024.7 |
| 20260906000530 | 58 | 23 | 0.0 | 0.0 | 9.51 | 3.32 | 0.00 | 90 | 1024.6 |
| 20260906000025 | 58 | 23 | 0.0 | 0.0 | 9.65 | 2.75 | 0.00 | 90 | 1024.6 |
| 20260905235524 | 58 | 23 | 0.0 | 0.0 | 9.65 | 2.75 | 0.00 | 90 | 1024.5 |
| 20260905234024 | 58 | 23 | 0.0 | 0.0 | 9.51 | 1.52 | 0.00 | 90 | 1024.4 |
| 20260905233025 | 58 | 23 | 0.0 | 0.0 | 8.83 | 0.80 | 0.00 | 90 | 1024.4 |
| 20260905232526 | 58 | 23 | 0.0 | 0.0 | 9.55 | 0.80 | 0.00 | 90 | 1024.4 |
| 20260905231025 | 58 | 23 | 0.0 | 0.0 | 8.59 | 0.80 | 0.00 | 89 | 1024.3 |
| 20260905230525 | 58 | 23 | 0.0 | 0.0 | 9.47 | 0.23 | 0.00 | 89 | 1024.3 |
| 20260905225025 | 58 | 23 | 0.0 | 0.0 | 8.04 | 9.99 | 0.00 | 89 | 1024.5 |
| 20260905224025 | 58 | 23 | 0.0 | 0.0 | 9.20 | 9.99 | 0.00 | 89 | 1024.4 |
| 20260905223525 | 58 | 23 | 0.0 | 0.0 | 8.29 | 9.99 | 0.00 | 89 | 1024.3 |
| 20260905222524 | 58 | 23 | 0.0 | 0.0 | 9.04 | 9.99 | 0.00 | 89 | 1024.4 |
| 20260905222027 | 58 | 23 | 0.0 | 0.0 | 9.04 | 9.99 | 0.00 | 89 | 1024.2 |
| 20260905221525 | 58 | 23 | 0.0 | 0.0 | 8.33 | 9.99 | 0.00 | 89 | 1024.1 |
| 20260905221025 | 58 | 23 | 0.0 | 0.0 | 8.31 | 9.99 | 0.00 | 89 | 1024.1 |
| 20260905220525 | 59 | 23 | 0.0 | 0.0 | 9.10 | 9.99 | 0.00 | 89 | 1024.1 |
| 20260905215025 | 59 | 23 | 0.0 | 0.0 | 7.86 | 9.99 | 0.00 | 89 | 1024.2 |
| 20260905214526 | 59 | 23 | 0.0 | 0.0 | 9.65 | 9.99 | 0.00 | 89 | 1024.2 |
| 20260905214026 | 59 | 23 | 0.0 | 0.0 | 9.94 | 9.99 | 0.00 | 89 | 1024.1 |
| 20260905213527 | 59 | 23 | 0.0 | 0.0 | 9.18 | 9.99 | 0.00 | 89 | 1023.9 |
| 20260905213025 | 59 | 23 | 0.0 | 0.0 | 9.37 | 9.99 | 0.00 | 89 | 1023.9 |
| 20260905212527 | 59 | 23 | 0.0 | 0.0 | 9.99 | 9.99 | 0.00 | 88 | 1024.0 |
| 20260905212025 | 60 | 23 | 0.0 | 0.0 | 9.99 | 9.99 | 0.00 | 88 | 1024.0 |
| 20260905211525 | 60 | 23 | 0.0 | 0.0 | 9.57 | 9.99 | 0.00 | 88 | 1023.9 |
| 20260905211026 | 60 | 23 | 0.0 | 0.0 | 8.79 | 9.99 | 0.00 | 88 | 1023.9 |
| 20260905210525 | 60 | 23 | 0.0 | 0.0 | 9.73 | 9.99 | 0.00 | 89 | 1023.9 |
| 20260905205525 | 60 | 23 | 0.0 | 0.0 | 9.12 | 9.99 | 0.00 | 89 | 1023.7 |
| 20260905205026 | 60 | 23 | 0.0 | 0.0 | 7.32 | 9.99 | 0.00 | 88 | 1023.6 |
| 20260905204527 | 60 | 23 | 0.0 | 0.0 | 9.06 | 9.99 | 0.00 | 88 | 1023.4 |
| 20260905203526 | 60 | 23 | 0.0 | 0.0 | 7.47 | 9.99 | 0.00 | 88 | 1023.3 |
| 20260905203026 | 60 | 23 | 0.0 | 0.0 | 7.41 | 9.99 | 0.00 | 88 | 1023.6 |
| 20260905202528 | 60 | 23 | 0.0 | 0.0 | 7.45 | 9.99 | 0.00 | 88 | 1023.5 |
| 20260905201526 | 61 | 23 | 0.0 | 0.0 | 7.30 | 9.99 | 0.00 | 88 | 1023.6 |
| 20260905201026 | 61 | 23 | 0.0 | 0.0 | 6.34 | 9.99 | 0.00 | 88 | 1023.5 |
| 20260905200028 | 61 | 23 | 0.0 | 0.0 | 7.18 | 9.99 | 0.00 | 88 | 1023.3 |
| 20260905195027 | 62 | 23 | 0.0 | 0.0 | 5.90 | 9.99 | 0.00 | 88 | 1023.3 |
| 20260905194526 | 62 | 23 | 0.0 | 0.0 | 7.81 | 9.99 | 0.00 | 88 | 1023.3 |
| 20260905193027 | 61 | 135 | 0.0 | 0.0 | 8.53 | 9.99 | 0.00 | 88 | 1023.0 |
| 20260905192526 | 61 | 135 | 0.0 | 0.0 | 9.14 | 9.99 | 0.00 | 87 | 1022.7 |
| 20260905192028 | 61 | 135 | 0.0 | 0.0 | 9.14 | 9.99 | 0.00 | 86 | 1022.6 |
| 20260905191527 | 62 | 135 | 0.0 | 0.0 | 9.18 | 9.99 | 0.00 | 86 | 1022.7 |
| 20260905191027 | 62 | 135 | 0.0 | 0.0 | 9.10 | 9.99 | 0.00 | 86 | 1022.5 |
| 20260905190027 | 62 | 135 | 0.0 | 0.0 | 9.99 | 9.99 | 0.00 | 86 | 1022.7 |
| 20260905185027 | 62 | 135 | 0.0 | 0.0 | 8.47 | 9.99 | 0.00 | 86 | 1022.5 |
| 20260905184528 | 62 | 135 | 0.0 | 0.0 | 9.99 | 9.99 | 0.00 | 86 | 1022.4 |
| 20260905184028 | 63 | 135 | 0.0 | 0.0 | 9.99 | 9.99 | 0.00 | 85 | 1022.4 |
| 20260905181527 | 63 | 135 | 0.0 | 0.0 | 9.88 | 9.99 | 0.00 | 85 | 1021.9 |
| 20260905181027 | 64 | 135 | 0.0 | 0.0 | 9.88 | 9.99 | 0.00 | 85 | 1022.0 |
| 20260905180528 | 64 | 135 | 0.0 | 0.0 | 9.99 | 9.99 | 0.00 | 85 | 1021.8 |
| 20260905174528 | 65 | 135 | 0.0 | 0.0 | 9.99 | 9.99 | 0.00 | 85 | 1021.5 |
| 20260905173028 | 65 | 135 | 0.0 | 0.0 | 9.12 | 9.06 | 0.00 | 83 | 1021.2 |
| 20260905172528 | 66 | 135 | 0.0 | 0.0 | 9.79 | 9.06 | 0.00 | 83 | 1021.1 |
| 20260905171528 | 66 | 135 | 0.0 | 0.0 | 8.22 | 9.06 | 0.00 | 83 | 1021.0 |
| 20260905171029 | 66 | 135 | 0.0 | 0.0 | 7.41 | 9.06 | 0.00 | 82 | 1020.8 |
| 20260905170028 | 67 | 135 | 0.0 | 0.0 | 5.80 | 7.75 | 0.00 | 82 | 1020.8 |
| 20260905165528 | 67 | 135 | 0.0 | 0.0 | 5.80 | 7.75 | 0.00 | 82 | 1020.7 |
| 20260905165031 | 68 | 135 | 0.0 | 0.0 | 4.26 | 6.22 | 0.00 | 82 | 1020.5 |
| 20260905164529 | 68 | 135 | 0.0 | 0.0 | 4.26 | 6.22 | 0.00 | 82 | 1020.5 |
| 20260905164028 | 68 | 135 | 0.0 | 0.0 | 2.57 | 4.53 | 0.00 | 81 | 1020.4 |
| 20260905163028 | 68 | 135 | 0.0 | 0.0 | 1.10 | 3.06 | 0.00 | 81 | 1020.6 |
| 20260905162529 | 68 | 135 | 0.0 | 0.0 | 0.39 | 2.34 | 0.00 | 81 | 1020.6 |
| 20260905161029 | 68 | 135 | 0.0 | 0.0 | 0.00 | 1.96 | 0.00 | 81 | 1020.5 |
| 20260905155529 | 69 | 113 | 0.0 | 0.0 | 0.00 | 1.96 | 0.00 | 80 | 1020.6 |
| 20260905154529 | 69 | 113 | 0.0 | 0.0 | 0.00 | 1.96 | 0.00 | 80 | 1020.5 |
| 20260905154029 | 69 | 113 | 0.0 | 0.0 | 0.00 | 1.96 | 0.00 | 80 | 1020.5 |
| 20260905153530 | 69 | 113 | 0.0 | 0.0 | 0.00 | 1.96 | 0.00 | 80 | 1020.6 |
| 20260905152529 | 68 | 113 | 0.0 | 0.0 | 0.00 | 1.96 | 0.00 | 80 | 1020.7 |
| 20260905152030 | 69 | 113 | 0.0 | 0.0 | 0.00 | 1.96 | 0.00 | 79 | 1020.8 |
| 20260905151529 | 69 | 113 | 0.0 | 0.0 | 0.00 | 1.96 | 0.00 | 79 | 1020.7 |
| 20260905151029 | 69 | 113 | 0.0 | 0.0 | 0.00 | 1.96 | 0.00 | 80 | 1020.7 |
| 20260905150530 | 69 | 113 | 0.0 | 0.0 | 0.00 | 1.96 | 0.00 | 80 | 1020.7 |
| 20260905150029 | 69 | 113 | 0.0 | 0.0 | 0.00 | 1.96 | 0.00 | 80 | 1020.7 |
| 20260905145530 | 69 | 113 | 0.0 | 0.0 | 0.00 | 1.96 | 0.00 | 80 | 1020.7 |
| 20260905145030 | 68 | 113 | 0.0 | 0.0 | 0.00 | 1.96 | 0.00 | 81 | 1020.8 |
| 20260905144530 | 68 | 158 | 0.0 | 0.0 | 0.00 | 1.96 | 0.00 | 81 | 1020.7 |
| 20260905144030 | 67 | 158 | 0.0 | 0.0 | 0.00 | 1.96 | 0.00 | 82 | 1020.6 |
| 20260905143531 | 67 | 158 | 0.0 | 0.0 | 0.00 | 1.96 | 0.00 | 82 | 1020.5 |
| 20260905143030 | 66 | 158 | 0.0 | 0.0 | 0.00 | 1.96 | 0.00 | 81 | 1020.8 |
| 20260905142530 | 65 | 158 | 0.0 | 0.0 | 0.00 | 1.96 | 0.00 | 80 | 1020.9 |
| 20260905141530 | 65 | 158 | 0.0 | 0.0 | 0.00 | 1.96 | 0.00 | 80 | 1021.1 |
| 20260905141030 | 65 | 158 | 0.0 | 0.0 | 0.00 | 1.96 | 0.00 | 79 | 1020.9 |
| 20260905140530 | 66 | 225 | 0.0 | 0.0 | 0.00 | 1.96 | 0.00 | 79 | 1021.0 |
| 20260905140030 | 66 | 225 | 0.0 | 0.0 | 0.02 | 1.96 | 0.00 | 80 | 1021.0 |
| 20260905135531 | 66 | 68 | 0.0 | 0.0 | 0.02 | 1.96 | 0.00 | 79 | 1021.0 |
| 20260905135033 | 66 | 68 | 0.0 | 0.0 | 0.02 | 1.96 | 0.00 | 79 | 1020.9 |
| 20260905134531 | 66 | 68 | 0.0 | 0.0 | 0.06 | 1.96 | 0.00 | 78 | 1021.1 |
| 20260905134031 | 66 | 68 | 0.0 | 0.0 | 0.06 | 1.96 | 0.00 | 77 | 1021.1 |
| 20260905133031 | 66 | 158 | 1.7 | 3.5 | 0.06 | 2.06 | 0.00 | 77 | 1020.7 |
| 20260905132531 | 66 | 158 | 0.9 | 3.5 | 0.12 | 2.06 | 0.00 | 77 | 1020.9 |
| 20260905132033 | 66 | 23 | 0.0 | 0.0 | 0.12 | 2.06 | 0.00 | 77 | 1021.1 |
| 20260905131531 | 66 | 23 | 0.0 | 0.0 | 0.14 | 2.06 | 0.00 | 76 | 1021.2 |
| 20260905131031 | 65 | 23 | 0.0 | 0.0 | 0.22 | 2.06 | 0.00 | 73 | 1021.3 |
| 20260905130031 | 65 | 315 | 0.0 | 0.0 | 0.26 | 2.04 | 0.00 | 70 | 1021.9 |
| 20260905124531 | 69 | 0 | 0.9 | 3.5 | 0.45 | 2.00 | 0.00 | 62 | 1022.3 |
| 20260905124031 | 73 | 23 | 3.5 | 3.5 | 0.47 | 2.00 | 0.00 | 56 | 1022.3 |
| 20260905123031 | 76 | 158 | 0.0 | 2.6 | 0.47 | 2.04 | 0.00 | 51 | 1021.9 |
| 20260905122532 | 77 | 158 | 0.0 | 0.0 | 0.57 | 1.98 | 0.00 | 50 | 1021.5 |
| 20260905122033 | 78 | 158 | 0.0 | 0.0 | 0.57 | 1.98 | 0.00 | 49 | 1021.2 |
| 20260905121531 | 79 | 158 | 0.0 | 0.0 | 0.55 | 1.88 | 0.00 | 48 | 1021.0 |
| 20260905120533 | 80 | 135 | 0.0 | 0.0 | 0.80 | 1.84 | 0.00 | 50 | 1021.2 |
| 20260905115531 | 79 | 135 | 1.7 | 4.3 | 0.75 | 1.79 | 0.00 | 49 | 1021.0 |
| 20260905114532 | 79 | 135 | 2.6 | 6.1 | 0.61 | 1.59 | 0.00 | 49 | 1021.1 |
| 20260905114032 | 80 | 158 | 3.5 | 6.1 | 0.59 | 1.57 | 0.00 | 48 | 1020.9 |
| 20260905113532 | 80 | 158 | 3.5 | 5.2 | 0.59 | 1.57 | 0.00 | 49 | 1020.7 |
| 20260905113033 | 79 | 180 | 2.6 | 5.2 | 0.63 | 2.16 | 0.00 | 49 | 1020.8 |
| 20260905112532 | 79 | 135 | 3.5 | 4.3 | 0.59 | 2.00 | 0.00 | 49 | 1021.0 |
| 20260905112033 | 80 | 158 | 3.5 | 4.3 | 0.59 | 2.00 | 0.00 | 48 | 1020.9 |
| 20260905111532 | 81 | 158 | 2.6 | 4.3 | 0.41 | 1.79 | 0.00 | 48 | 1021.0 |
| 20260905111032 | 80 | 113 | 0.0 | 1.7 | 0.37 | 1.73 | 0.00 | 51 | 1020.9 |
| 20260905110032 | 79 | 68 | 0.0 | 0.0 | 0.35 | 1.63 | 0.00 | 50 | 1020.8 |
| 20260905105532 | 79 | 68 | 0.0 | 0.0 | 0.35 | 1.63 | 0.00 | 50 | 1021.0 |
| 20260905104532 | 80 | 135 | 0.0 | 0.0 | 0.30 | 1.57 | 0.00 | 49 | 1020.9 |
| 20260905104032 | 80 | 158 | 0.0 | 0.0 | 0.30 | 1.57 | 0.00 | 49 | 1020.9 |
| 20260905103536 | 80 | 45 | 0.0 | 0.0 | 0.26 | 1.53 | 0.00 | 48 | 1020.8 |
| 20260905103032 | 81 | 158 | 0.0 | 2.6 | 0.28 | 2.55 | 0.00 | 47 | 1021.0 |
| 20260905102533 | 82 | 158 | 0.9 | 2.6 | 0.16 | 2.43 | 0.00 | 46 | 1020.8 |
| 20260905101533 | 84 | 135 | 2.6 | 6.1 | 0.12 | 2.39 | 0.00 | 48 | 1020.8 |
| 20260905101035 | 83 | 135 | 0.9 | 3.5 | 0.04 | 2.30 | 0.00 | 50 | 1020.5 |
| 20260905100533 | 82 | 135 | 1.7 | 7.8 | 0.04 | 2.30 | 0.00 | 51 | 1020.6 |
| 20260905100033 | 81 | 158 | 4.3 | 7.8 | 0.04 | 2.30 | 0.00 | 52 | 1020.6 |
| 20260905095534 | 79 | 158 | 2.6 | 6.1 | 0.04 | 2.30 | 0.00 | 53 | 1020.4 |
| 20260905095033 | 78 | 23 | 0.9 | 3.5 | 0.02 | 2.29 | 0.00 | 54 | 1020.5 |
| 20260905094033 | 77 | 45 | 0.9 | 2.6 | 0.02 | 2.29 | 0.00 | 55 | 1020.8 |
| 20260905093534 | 77 | 23 | 0.0 | 0.0 | 0.00 | 2.26 | 0.00 | 55 | 1020.7 |
| 20260905093035 | 76 | 45 | 1.7 | 5.2 | 0.02 | 2.77 | 0.00 | 54 | 1020.6 |
| 20260905092533 | 76 | 45 | 2.6 | 5.2 | 0.02 | 2.77 | 0.00 | 53 | 1020.6 |
| 20260905092034 | 76 | 23 | 1.7 | 4.3 | 0.02 | 2.77 | 0.00 | 53 | 1020.8 |
| 20260905091534 | 76 | 23 | 2.6 | 4.3 | 0.02 | 2.77 | 0.00 | 53 | 1020.7 |
| 20260905091034 | 76 | 23 | 4.3 | 7.8 | 0.02 | 2.77 | 0.00 | 52 | 1020.7 |
| 20260905090535 | 77 | 23 | 3.5 | 7.8 | 0.02 | 2.77 | 0.00 | 52 | 1020.6 |
| 20260905090034 | 78 | 23 | 0.0 | 4.3 | 0.02 | 2.77 | 0.00 | 54 | 1020.5 |
| 20260905085534 | 78 | 23 | 1.7 | 3.5 | 0.02 | 2.77 | 0.00 | 54 | 1020.5 |
| 20260905084534 | 78 | 23 | 4.3 | 6.1 | 0.02 | 2.77 | 0.00 | 54 | 1020.5 |
| 20260905084034 | 79 | 23 | 1.7 | 6.1 | 0.08 | 2.77 | 0.00 | 54 | 1020.3 |
| 20260905083534 | 79 | 23 | 3.5 | 7.0 | 0.06 | 2.75 | 0.00 | 55 | 1020.2 |
| 20260905082534 | 79 | 23 | 4.3 | 10.4 | 0.06 | 3.10 | 0.00 | 56 | 1020.0 |
| 20260905081534 | 81 | 45 | 3.5 | 7.8 | 0.06 | 3.10 | 0.00 | 57 | 1019.7 |
| 20260905081034 | 81 | 0 | 1.7 | 7.8 | 0.06 | 3.10 | 0.00 | 60 | 1019.6 |
| 20260905080536 | 81 | 0 | 0.0 | 0.0 | 0.06 | 3.10 | 0.00 | 63 | 1019.3 |
| 20260905080032 | 80 | 23 | 0.0 | 1.7 | 0.06 | 3.10 | 0.00 | 63 | 1019.3 |
| 20260905075533 | 80 | 23 | 0.9 | 1.7 | 0.06 | 3.10 | 0.00 | 64 | 1019.3 |
| 20260905075033 | 79 | 135 | 0.9 | 1.7 | 0.06 | 3.10 | 0.00 | 65 | 1019.1 |
| 20260905074533 | 79 | 23 | 0.9 | 6.1 | 0.06 | 3.10 | 0.00 | 66 | 1019.1 |
| 20260905074033 | 78 | 23 | 3.5 | 7.8 | 0.00 | 3.04 | 0.00 | 68 | 1018.9 |
| 20260905073533 | 77 | 23 | 3.5 | 7.8 | 0.00 | 3.04 | 0.00 | 69 | 1018.7 |
| 20260905073035 | 76 | 45 | 2.6 | 7.8 | 0.00 | 3.10 | 0.00 | 72 | 1018.5 |
| 20260905072535 | 74 | 23 | 3.5 | 7.8 | 0.00 | 3.10 | 0.00 | 75 | 1018.5 |
| 20260905072035 | 74 | 23 | 0.9 | 5.2 | 0.00 | 3.10 | 0.00 | 76 | 1018.2 |
| 20260905071535 | 73 | 23 | 0.0 | 0.0 | 0.00 | 3.10 | 0.00 | 77 | 1017.5 |
| 20260905071035 | 73 | 23 | 1.7 | 4.3 | 0.00 | 3.10 | 0.00 | 78 | 1017.6 |
| 20260905070535 | 72 | 23 | 1.7 | 4.3 | 0.00 | 3.10 | 0.00 | 79 | 1017.6 |
| 20260905070035 | 72 | 23 | 0.0 | 0.0 | 0.00 | 3.10 | 0.00 | 81 | 1017.6 |
| 20260905065535 | 71 | 23 | 0.0 | 0.0 | 0.00 | 3.10 | 0.00 | 83 | 1017.3 |
| 20260905065035 | 70 | 23 | 0.0 | 0.0 | 0.00 | 3.10 | 0.00 | 85 | 1017.2 |
| 20260905064536 | 70 | 23 | 0.0 | 0.0 | 0.00 | 3.10 | 0.00 | 85 | 1017.1 |
| 20260905064035 | 69 | 68 | 0.0 | 0.0 | 0.00 | 3.10 | 0.00 | 86 | 1017.1 |
| 20260905063536 | 68 | 68 | 0.0 | 0.0 | 0.00 | 3.10 | 0.00 | 87 | 1017.1 |
| 20260905063035 | 67 | 68 | 0.0 | 0.0 | 0.00 | 3.22 | 0.00 | 88 | 1017.0 |
| 20260905062535 | 66 | 68 | 0.0 | 0.0 | 0.00 | 3.22 | 0.00 | 88 | 1016.9 |
| 20260905062035 | 65 | 68 | 0.0 | 0.0 | 0.00 | 3.22 | 0.00 | 89 | 1016.9 |
| 20260905061036 | 64 | 68 | 0.0 | 0.0 | 0.00 | 3.22 | 0.00 | 89 | 1016.7 |
| 20260905060535 | 63 | 68 | 0.0 | 0.0 | 0.00 | 3.22 | 0.00 | 89 | 1016.6 |
| 20260905060036 | 62 | 68 | 0.0 | 0.0 | 0.00 | 3.22 | 0.00 | 89 | 1016.7 |
| 20260905055536 | 61 | 68 | 0.0 | 0.0 | 0.00 | 3.22 | 0.00 | 89 | 1016.6 |
| 20260905054536 | 60 | 68 | 0.0 | 0.0 | 0.00 | 3.22 | 0.00 | 89 | 1016.7 |
| 20260905054036 | 60 | 68 | 0.0 | 0.0 | 0.00 | 3.22 | 0.00 | 88 | 1016.6 |
| 20260905053536 | 60 | 68 | 0.0 | 0.0 | 0.00 | 3.22 | 0.00 | 89 | 1016.6 |
| 20260905052536 | 60 | 68 | 0.0 | 0.0 | 0.00 | 3.26 | 0.00 | 89 | 1016.3 |
| 20260905052036 | 60 | 68 | 0.0 | 0.0 | 0.00 | 3.26 | 0.00 | 89 | 1016.4 |
| 20260905051036 | 59 | 68 | 0.0 | 0.0 | 0.00 | 3.26 | 0.00 | 88 | 1016.3 |
| 20260905050537 | 59 | 68 | 0.0 | 0.0 | 0.00 | 3.26 | 0.00 | 88 | 1016.1 |
| 20260905050037 | 58 | 68 | 0.0 | 0.0 | 0.00 | 3.26 | 0.00 | 88 | 1016.1 |
| 20260905045536 | 58 | 68 | 0.0 | 0.0 | 0.00 | 3.26 | 0.00 | 88 | 1016.0 |
| 20260905045039 | 58 | 68 | 0.0 | 0.0 | 0.00 | 3.26 | 0.00 | 88 | 1015.8 |
| 20260905044037 | 58 | 68 | 0.0 | 0.0 | 0.00 | 3.26 | 0.00 | 87 | 1015.6 |
| 20260905043536 | 57 | 68 | 0.0 | 0.0 | 0.00 | 3.26 | 0.00 | 87 | 1015.5 |
| 20260905043038 | 57 | 68 | 0.0 | 0.0 | 0.00 | 3.28 | 0.00 | 87 | 1015.7 |
| 20260905042537 | 58 | 68 | 0.0 | 0.0 | 0.00 | 3.28 | 0.00 | 87 | 1015.6 |
| 20260905042037 | 58 | 68 | 0.0 | 0.0 | 0.00 | 3.28 | 0.00 | 87 | 1015.5 |
| 20260905041537 | 58 | 68 | 0.0 | 0.0 | 0.00 | 3.28 | 0.00 | 87 | 1015.7 |
| 20260905040537 | 58 | 68 | 0.0 | 0.0 | 0.00 | 3.28 | 0.00 | 87 | 1015.6 |
| 20260905040123 | 58 | 68 | 0.0 | 0.0 | 0.00 | 3.28 | 0.00 | 87 | 1015.4 |
| 20260905040037 | 58 | 68 | 0.0 | 0.0 | 0.00 | 3.28 | 0.00 | 87 | 1015.4 |
| 20260905035538 | 58 | 68 | 0.0 | 0.0 | 0.00 | 3.28 | 0.00 | 87 | 1015.5 |
| 20260905035037 | 58 | 68 | 0.0 | 0.0 | 0.00 | 3.28 | 0.00 | 87 | 1015.3 |
| 20260905034537 | 58 | 68 | 0.0 | 0.0 | 0.00 | 3.28 | 0.00 | 87 | 1015.2 |
| 20260905034037 | 58 | 68 | 0.0 | 0.0 | 0.04 | 3.28 | 0.00 | 87 | 1015.1 |
| 20260905033537 | 58 | 68 | 0.0 | 0.0 | 0.04 | 3.31 | 0.00 | 87 | 1015.1 |
| 20260905032538 | 58 | 68 | 0.0 | 0.0 | 0.04 | 3.31 | 0.00 | 86 | 1015.1 |
| 20260905032037 | 58 | 68 | 0.0 | 0.0 | 0.04 | 3.31 | 0.00 | 86 | 1015.2 |
| 20260905031538 | 58 | 68 | 0.0 | 0.0 | 0.06 | 3.31 | 0.00 | 86 | 1015.0 |
| 20260905031038 | 59 | 68 | 0.0 | 0.0 | 0.06 | 3.31 | 0.00 | 86 | 1015.0 |
| 20260905030539 | 59 | 68 | 0.0 | 0.0 | 0.06 | 3.31 | 0.00 | 86 | 1014.9 |
| 20260905030037 | 59 | 68 | 0.0 | 0.0 | 0.08 | 3.31 | 0.00 | 87 | 1015.1 |
| 20260905025537 | 59 | 68 | 0.0 | 0.0 | 0.08 | 3.31 | 0.00 | 86 | 1014.9 |
| 20260905025038 | 59 | 68 | 0.0 | 0.0 | 0.10 | 3.31 | 0.00 | 86 | 1015.0 |
| 20260905024538 | 59 | 68 | 0.0 | 0.0 | 0.10 | 3.31 | 0.00 | 86 | 1014.8 |
| 20260905024038 | 59 | 68 | 0.0 | 0.0 | 0.06 | 3.26 | 0.00 | 86 | 1015.1 |